TimeHST,TemperatureF,Dew PointF,Humidity,Sea Level PressureIn,VisibilityMPH,Wind Direction,Wind SpeedMPH,Gust SpeedMPH,PrecipitationIn,Events,Conditions,WindDirDegrees,DateUTC
12:56 AM,49.3,39.7,70,30.32,12.0,ESE,3.5,-,N/A,,Clear,110,2013-08-24 10:56:00
1:56 AM,47.7,34.2,60,30.30,12.0,ESE,4.6,-,N/A,,Clear,120,2013-08-24 11:56:00
2:56 AM,47.8,34.3,60,30.30,12.0,SW,1.2,-,N/A,,Clear,220,2013-08-24 12:56:00
3:56 AM,50.0,37.8,63,30.31,12.0,North,1.2,-,N/A,,Clear,10,2013-08-24 13:56:00
4:56 AM,44.1,38.1,80,30.30,12.0,NNE,2.3,-,N/A,,Clear,20,2013-08-24 14:56:00
5:56 AM,43.5,30.6,60,30.31,4.0,East,4.6,-,N/A,,Clear,100,2013-08-24 15:56:00
6:56 AM,49.1,28.8,45,30.32,9.0,ESE,3.5,-,N/A,,Clear,110,2013-08-24 16:56:00
7:56 AM,60.6,30.9,33,30.32,12.0,WSW,3.5,-,N/A,,Clear,240,2013-08-24 17:56:00
8:56 AM,65.7,27.7,24,30.33,12.0,SW,6.9,-,N/A,,Clear,230,2013-08-24 18:56:00
9:56 AM,70.5,17.4,13,30.33,12.0,SE,15.0,24.2,N/A,,Clear,130,2013-08-24 19:56:00
10:56 AM,72.3,21.7,15,30.33,12.0,SSE,16.1,25.3,N/A,,Partly Cloudy,150,2013-08-24 20:56:00
11:22 AM,71.6,23.0,16,30.33,12.0,South,12.7,24.2,N/A,,Partly Cloudy,170,2013-08-24 21:22:00
11:52 AM,71.6,28.4,20,30.33,12.0,South,13.8,26.5,N/A,,Partly Cloudy,180,2013-08-24 21:52:00
11:56 AM,71.6,31.3,23,30.32,12.0,SSE,13.8,26.5,N/A,,Partly Cloudy,150,2013-08-24 21:56:00
12:40 PM,71.6,28.4,20,30.31,12.0,SE,16.1,26.5,N/A,,Clear,140,2013-08-24 22:40:00
12:57 PM,72.9,32.0,22,30.31,12.0,SSE,15.0,23.0,N/A,,Clear,150,2013-08-24 22:57:00
1:11 PM,73.4,30.2,20,30.31,12.0,South,13.8,25.3,N/A,,Clear,170,2013-08-24 23:11:00
1:56 PM,72.1,34.9,26,30.29,12.0,South,11.5,21.9,N/A,,Clear,180,2013-08-24 23:56:00
2:05 PM,73.4,33.8,23,30.29,12.0,SSE,16.1,25.3,N/A,,Partly Cloudy,150,2013-08-25 00:05:00
2:17 PM,73.4,35.6,25,30.29,12.0,South,16.1,26.5,N/A,,Partly Cloudy,190,2013-08-25 00:17:00
2:18 PM,73.4,33.8,23,30.29,12.0,SSW,12.7,26.5,N/A,,Partly Cloudy,200,2013-08-25 00:18:00
2:20 PM,73.4,33.8,23,30.28,12.0,SSE,16.1,26.5,N/A,,Partly Cloudy,150,2013-08-25 00:20:00
2:56 PM,73.9,28.2,18,30.27,10.0,SSE,18.4,29.9,N/A,,Clear,150,2013-08-25 00:56:00
3:56 PM,73.6,36.3,26,30.25,11.0,SSE,20.7,32.2,N/A,,Clear,160,2013-08-25 01:56:00
4:56 PM,71.6,35.1,26,30.26,12.0,SSE,18.4,32.2,N/A,,Clear,160,2013-08-25 02:56:00
5:56 PM,69.4,35.8,29,30.29,12.0,SSE,15.0,24.2,N/A,,Clear,150,2013-08-25 03:56:00
6:56 PM,58.6,50.9,75,30.31,12.0,SW,3.5,-,N/A,,Clear,220,2013-08-25 04:56:00
7:56 PM,57.0,41.5,56,30.34,12.0,SSW,2.3,-,N/A,,Clear,210,2013-08-25 05:56:00
8:56 PM,58.8,27.5,30,30.33,12.0,South,16.1,23.0,N/A,,Clear,170,2013-08-25 06:56:00
9:56 PM,58.1,26.4,30,30.36,12.0,SE,5.8,15.0,N/A,,Clear,140,2013-08-25 07:56:00
10:56 PM,58.8,35.8,42,30.36,12.0,West,5.8,19.6,N/A,,Clear,280,2013-08-25 08:56:00
11:16 PM,66.2,32.0,28,30.35,12.0,ENE,15.0,26.5,N/A,,Clear,70,2013-08-25 09:16:00
11:56 PM,57.0,30.2,36,30.35,12.0,SE,2.3,-,N/A,,Clear,140,2013-08-25 09:56:00